METEOR 2-5 DEB, 45512

Orbit data source: Space-Track

METEOR 2-5 DEB, 45512 is space debris in LEO originally from a launch on Wed, 31 Oct 1979 UTC launched from the Plesetsk Missile And Space Complex (PKMTR). Debris objects in space refer to the collection of defunct objects orbiting the Earth. Examples of debris include non-operational satellites, rocket bodies, and fragments generated from explosions, collisions, or faulty payload assembly.

Loading next visibility...
Identifier
45512, 1979-095CU
Orbit
LEO
Country
Flag of CISCIS
Related business
Manufacturer
Unknown
Mission
Spacecraft
Bus & Motor
Unknown
Mass
Unknown
Launch date (UTC)
1979-10-31 (47 years ago)
Launch vehicle
Unknown
Launch site
Plesetsk Missile And Space Complex (PKMTR)
Object type
Payload
Rocket body
Debris
Shape & HBR
Unknown shape, 0.1 m
Radar Cross Section
Small (<0.1 m²)

Expand to show TLE details & history
Last TLE update: 1 day ago

TLE from 1 day ago
0 METEOR 2-5 DEB
1 45512U 79095CU  26123.06862029  .00003960  00000-0  15882-2 0  9998
2 45512  81.2200 238.8992 0001421 309.7806  50.3250 14.28110094559671
Epoch: 2026-05-03T01:38Z
TLE epoch observation values (Epoch: 2026-05-03T01:38:48.793Z)
Latitude
0.00006°
Longitude
-6.78157°
Altitude
800.327 km
Speed
7.454 km/s
True Right ascension
15h 55m 35s
True Declination
0° 00' 00"
Sunlit
Object was in full shadow at epoch
Visualization orbit readout
Latitude
Unknown
Longitude
Unknown
Altitude
Unknown
Speed
Unknown
Apparent Right ascension
Unknown
Apparent Declination
Unknown
Sunlit
N/A
Visualization observer readout
Local Sidereal Time
09:35:46
Azimuth
Unknown
Elevation
Unknown
Doppler factor
Unknown
Orbital elements
Apogee altitude
796.225 km
Perigee altitude
794.187 km
Semi-major axis
7,173.343 km
Eccentricity
0.00014
Inclination
81.22°
RAAN
238.8992°
Arg. of periapsis
309.7806°
True anomaly
50.33753°
Mean anomaly
50.325°
Eccentric anomaly
50.33127°
Mean motion
3.57241 °/min
Orbital period
100.77 mins
BSTAR
0.0015882
Loading maneuver chart data...
Computing Atmospheric mass density...
Loading historical data...
Loading historical data...
Loading historical data...
Loading historical data...
Loading historical data...
Loading historical data...
Loading historical data...

Documentation

Showing up to 5 results
|